NOAA 17 DEB

Satellite information

Favourite Embed

Satellite Type and Status

DEBRISIN ORBIT

Key statistics

Satellite NOAA 17 DEB at a glance.

Uptime

8414

Days in orbit

Revolutions

≈ 14.2

Per day

Orbit

SSO

Sun Synchronous Orbit

Inclination

98.9

Latest

Satellite identification and parameters

Extended collection of information and parameters for NOAA 17 DEB.

Object identification

Identified? True

Debris? True

Object name: NOAA 17 DEB

International designator: 2002-032AP

Object number (NORAD): 48706

Object ID (CCSDS): 48706

Country: UNITED STATES OF AMERICA (US)

Current information (Y/N): Y

RCS size: SMALL

Orbital parameters

Period: 101.33 minutes

Inclination: 98.9208 deg

SMA: 7199.776 km

Apoapsis: 899.47 km

Periapsis: 743.812 km

RAAN: 130.6748 deg

Eccentricy: 0.0108099

Argument of periapsis: 58.9187 deg

Mean anomaly: 302.2545 deg

Mean motion: 14.21098804 rev/day

Mean motion (dot): 0.00005318 rev/day2

B* drag term: 0.0023262 1/REarth

Two-line elements (TLE)

Creation date: July 6, 2025, 6:05 p.m.

Reference frame: TEME

Reference center: EARTH

Epoch: July 6, 2025, 1:27 a.m. UTC

TLE line 0: 0 NOAA 17 DEB

TLE line 1: 1 48706U 02032AP 25187.06042899 .00005318 00000-0 23262-2 0 9997

TLE line 2: 2 48706 98.9208 130.6748 0108099 58.9187 302.2545 14.21098804217960

Live tracking on map

Real-time ground track for satellite NOAA 17 DEB.

In-orbit conjunctions

A list of the most updated potential collisions computed for object NOAA 17 DEB.

Target Orbit TCA Probability of collision Miss distance Type
COSMOS 1777 LEO 2024-12-22 09:57:20 0.0001110201 393.0 (m) PAYLOAD
SL-3 DEB LEO 2024-11-13 07:20:01 0.0002103353 203.0 (m) DEBRIS
SL-14 DEB LEO 2024-09-04 12:12:19 0.000120263 180.0 (m) DEBRIS

Associated space launch

NOAA M carried weather imagers and microwave and infrared sounders, as well as a SARSAT search-and-rescue package. It had an on-orbit mass of 1475 kg.

NOAA 17 DEB was lifted into orbit during the mission ‘Titan II SLV | NOAA 17’, on board a Titan II SLV space rocket.

The launch took place on June 24, 2002, 6:23 p.m. from Space Launch Complex 4W.

For more information about the launch, click the button.

Launch to space Titan II SLV | NOAA 17
Titan II SLV | NOAA 17

Agency: N/A

Status: Launch Successful

Launch date: June 24, 2002, 6:23 p.m. UTC

Rocket: Titan II SLV

Launch pad: Space Launch Complex 4W

Location: Vandenberg SFB, CA, USA

...

Latest news about this satellite

There are no fresh news available about this satellite. Check back as we update our databases every day.


Newsletter sign-up

Weekly statistics, charts and insights to help you stay on top of the space industry.